| time (UTC) | temp F | wind direction | speed MPH | gust MPH | rain 1hr in | rain 24hr in | rain mn in | humidity % | barometer mb |
| 20260504043026 | 55 | 228 | 0.0 | 2.0 | 0.00 | 0.00 | 0.00 | 60 | 1010.7 |
| 20260504042522 | 55 | 132 | 0.0 | 2.0 | 0.00 | 0.00 | 0.00 | 60 | 1010.8 |
| 20260504042021 | 55 | 207 | 0.0 | 2.0 | 0.00 | 0.00 | 0.00 | 60 | 1010.8 |
| 20260504041523 | 56 | 186 | 0.0 | 2.0 | 0.00 | 0.00 | 0.00 | 60 | 1010.9 |
| 20260504041020 | 56 | 202 | 0.0 | 2.0 | 0.00 | 0.00 | 0.00 | 59 | 1011.0 |
| 20260504040520 | 56 | 301 | 0.0 | 2.0 | 0.00 | 0.00 | 0.00 | 59 | 1011.0 |
| 20260504040019 | 56 | 226 | 0.0 | 2.0 | 0.00 | 0.00 | 0.00 | 58 | 1011.1 |
| 20260504035522 | 56 | 265 | 0.0 | 2.0 | 0.00 | 0.00 | 0.00 | 59 | 1011.2 |
| 20260504035020 | 56 | 200 | 0.0 | 2.0 | 0.00 | 0.00 | 0.00 | 57 | 1011.2 |
| 20260504034521 | 57 | 121 | 0.0 | 2.0 | 0.00 | 0.00 | 0.00 | 57 | 1011.2 |
| 20260504034018 | 57 | 181 | 0.0 | 2.0 | 0.00 | 0.00 | 0.00 | 57 | 1011.4 |
| 20260504033518 | 57 | 171 | 0.0 | 2.0 | 0.00 | 0.00 | 0.00 | 57 | 1011.4 |
| 20260504033018 | 57 | 211 | 0.0 | 2.0 | 0.00 | 0.00 | 0.00 | 56 | 1011.4 |
| 20260504032517 | 57 | 183 | 0.0 | 2.0 | 0.00 | 0.00 | 0.00 | 56 | 1011.5 |
| 20260504032018 | 57 | 129 | 0.0 | 2.0 | 0.00 | 0.00 | 0.00 | 56 | 1011.6 |
| 20260504031518 | 58 | 51 | 0.0 | 2.0 | 0.00 | 0.00 | 0.00 | 57 | 1011.7 |
| 20260504031017 | 58 | 186 | 0.0 | 2.0 | 0.00 | 0.00 | 0.00 | 56 | 1011.6 |
| 20260504030517 | 58 | 186 | 0.0 | 2.0 | 0.00 | 0.00 | 0.00 | 56 | 1011.6 |
| 20260504030035 | 58 | 92 | 0.0 | 3.0 | 0.00 | 0.00 | 0.00 | 56 | 1011.7 |
| 20260504025517 | 58 | 171 | 0.0 | 3.0 | 0.00 | 0.00 | 0.00 | 55 | 1011.7 |
| 20260504025020 | 58 | 200 | 0.0 | 2.0 | 0.00 | 0.00 | 0.00 | 55 | 1011.7 |
| 20260504024517 | 58 | 113 | 0.0 | 2.0 | 0.00 | 0.00 | 0.00 | 55 | 1011.8 |
| 20260504024017 | 58 | 180 | 0.0 | 2.0 | 0.00 | 0.00 | 0.00 | 55 | 1011.8 |
| 20260504023518 | 58 | 125 | 0.0 | 2.0 | 0.00 | 0.00 | 0.00 | 55 | 1011.7 |
| 20260504023017 | 58 | 159 | 0.0 | 2.0 | 0.00 | 0.00 | 0.00 | 55 | 1011.8 |
| 20260504022516 | 58 | 165 | 0.0 | 2.0 | 0.00 | 0.00 | 0.00 | 54 | 1011.7 |
| 20260504022015 | 58 | 157 | 0.0 | 2.0 | 0.00 | 0.00 | 0.00 | 54 | 1011.8 |
| 20260504021516 | 58 | 238 | 0.0 | 2.0 | 0.00 | 0.00 | 0.00 | 54 | 1011.7 |
| 20260504021015 | 58 | 126 | 0.0 | 2.0 | 0.00 | 0.00 | 0.00 | 54 | 1011.6 |
| 20260504020515 | 58 | 130 | 0.0 | 2.0 | 0.00 | 0.00 | 0.00 | 53 | 1011.8 |
| 20260504020015 | 59 | 111 | 0.0 | 2.0 | 0.00 | 0.00 | 0.00 | 54 | 1011.7 |
| 20260504015515 | 59 | 136 | 0.0 | 2.0 | 0.00 | 0.00 | 0.00 | 52 | 1011.9 |
| 20260504015019 | 59 | 130 | 0.0 | 2.0 | 0.00 | 0.00 | 0.00 | 52 | 1011.8 |
| 20260504014531 | 59 | 202 | 0.0 | 2.0 | 0.00 | 0.00 | 0.00 | 54 | 1011.8 |
| 20260504014014 | 60 | 194 | 0.0 | 2.0 | 0.00 | 0.00 | 0.00 | 51 | 1011.7 |
| 20260504013514 | 59 | 158 | 0.0 | 2.0 | 0.00 | 0.00 | 0.00 | 51 | 1011.6 |
| 20260504013014 | 60 | 207 | 0.0 | 3.0 | 0.00 | 0.00 | 0.00 | 51 | 1011.5 |
| 20260504012516 | 60 | 158 | 0.0 | 4.0 | 0.00 | 0.00 | 0.00 | 51 | 1011.4 |
| 20260504012014 | 60 | 211 | 0.0 | 3.0 | 0.00 | 0.00 | 0.00 | 51 | 1011.3 |
| 20260504011514 | 59 | 128 | 0.0 | 2.0 | 0.00 | 0.00 | 0.00 | 52 | 1011.3 |
| 20260504011017 | 59 | 329 | 0.0 | 2.0 | 0.00 | 0.00 | 0.00 | 55 | 1011.2 |
| 20260504010512 | 59 | 281 | 0.0 | 7.0 | 0.00 | 0.00 | 0.00 | 54 | 1011.1 |
| 20260504010015 | 59 | 167 | 0.0 | 7.0 | 0.00 | 0.00 | 0.00 | 52 | 1011.0 |
| 20260504005513 | 59 | 199 | 0.0 | 4.0 | 0.00 | 0.00 | 0.00 | 52 | 1010.9 |
| 20260504005012 | 60 | 187 | 0.0 | 3.0 | 0.00 | 0.00 | 0.00 | 51 | 1010.8 |
| 20260504004512 | 60 | 135 | 0.0 | 3.0 | 0.00 | 0.00 | 0.00 | 51 | 1011.6 |
| 20260504004010 | 60 | 133 | 0.0 | 3.0 | 0.00 | 0.00 | 0.00 | 51 | 1011.7 |
| 20260504003512 | 60 | 309 | 0.0 | 2.0 | 0.00 | 0.00 | 0.00 | 51 | 1011.9 |
| 20260504003024 | 60 | 182 | 0.0 | 3.0 | 0.00 | 0.00 | 0.00 | 50 | 1011.6 |
| 20260504002510 | 60 | 178 | 0.0 | 3.0 | 0.00 | 0.00 | 0.00 | 50 | 1011.5 |
| 20260504002010 | 60 | 100 | 0.0 | 6.0 | 0.00 | 0.00 | 0.00 | 52 | 1011.3 |
| 20260504001510 | 60 | 172 | 1.0 | 6.0 | 0.00 | 0.00 | 0.00 | 50 | 1011.4 |
| 20260504001009 | 60 | 53 | 0.0 | 3.0 | 0.00 | 0.00 | 0.00 | 50 | 1011.3 |
| 20260504000509 | 60 | 256 | 0.0 | 3.0 | 0.00 | 0.00 | 0.00 | 48 | 1011.7 |
| 20260504000008 | 60 | 148 | 0.0 | 2.0 | 0.00 | 0.00 | 0.00 | 48 | 1012.2 |
| 20260503235512 | 60 | 179 | 0.0 | 1.0 | 0.00 | 0.00 | 0.00 | 49 | 1012.3 |
| 20260503235010 | 61 | 190 | 0.0 | 2.0 | 0.00 | 0.00 | 0.00 | 47 | 1012.4 |
| 20260503234522 | 61 | 188 | 0.0 | 2.0 | 0.00 | 0.00 | 0.00 | 49 | 1012.5 |
| 20260503234008 | 61 | 156 | 0.0 | 2.0 | 0.00 | 0.00 | 0.00 | 47 | 1012.3 |
| 20260503233507 | 61 | 159 | 0.0 | 2.0 | 0.00 | 0.00 | 0.00 | 49 | 1012.1 |
| 20260503233008 | 61 | 146 | 0.0 | 2.0 | 0.00 | 0.00 | 0.00 | 46 | 1012.0 |
| 20260503232507 | 61 | 115 | 0.0 | 2.0 | 0.00 | 0.00 | 0.00 | 46 | 1012.1 |
| 20260503232007 | 61 | 202 | 0.0 | 3.0 | 0.00 | 0.00 | 0.00 | 46 | 1012.1 |
| 20260503231509 | 61 | 214 | 0.0 | 4.0 | 0.00 | 0.00 | 0.00 | 45 | 1012.1 |
| 20260503231009 | 61 | 209 | 0.0 | 2.0 | 0.00 | 0.00 | 0.00 | 45 | 1012.2 |
| 20260503230506 | 61 | 212 | 0.0 | 7.0 | 0.00 | 0.00 | 0.00 | 45 | 1012.4 |
| 20260503230006 | 61 | 175 | 0.0 | 7.0 | 0.00 | 0.00 | 0.00 | 48 | 1012.5 |
| 20260503225509 | 61 | 130 | 0.0 | 5.0 | 0.00 | 0.00 | 0.00 | 45 | 1012.6 |
| 20260503225010 | 61 | 269 | 0.0 | 5.0 | 0.00 | 0.00 | 0.00 | 48 | 1012.5 |
| 20260503224506 | 61 | 153 | 0.0 | 4.0 | 0.00 | 0.00 | 0.00 | 46 | 1012.4 |
| 20260503224006 | 61 | 130 | 0.0 | 4.0 | 0.00 | 0.00 | 0.00 | 45 | 1012.1 |
| 20260503223506 | 61 | 228 | 0.0 | 4.0 | 0.00 | 0.00 | 0.00 | 45 | 1012.0 |
| 20260503223005 | 61 | 183 | 0.0 | 4.0 | 0.00 | 0.00 | 0.00 | 44 | 1011.9 |
| 20260503222503 | 61 | 135 | 0.0 | 2.0 | 0.00 | 0.00 | 0.00 | 46 | 1012.2 |
| 20260503222002 | 61 | 215 | 0.0 | 2.0 | 0.00 | 0.00 | 0.00 | 47 | 1012.6 |
| 20260503221504 | 61 | 160 | 0.0 | 5.0 | 0.00 | 0.00 | 0.00 | 48 | 1012.7 |
| 20260503221002 | 60 | 344 | 0.0 | 6.0 | 0.00 | 0.00 | 0.00 | 46 | 1012.8 |
| 20260503220502 | 60 | 134 | 0.0 | 6.0 | 0.00 | 0.00 | 0.00 | 48 | 1012.6 |
| 20260503220002 | 60 | 262 | 1.0 | 6.0 | 0.00 | 0.00 | 0.00 | 46 | 1012.4 |
| 20260503215500 | 60 | 304 | 0.0 | 5.0 | 0.00 | 0.00 | 0.00 | 50 | 1012.5 |
| 20260503215100 | 60 | 108 | 0.0 | 5.0 | 0.00 | 0.00 | 0.00 | 47 | 1012.6 |
| 20260503214601 | 61 | 205 | 0.0 | 5.0 | 0.00 | 0.00 | 0.00 | 46 | 1012.5 |
| 20260503214103 | 61 | 203 | 1.0 | 5.0 | 0.00 | 0.00 | 0.00 | 43 | 1012.6 |
| 20260503213558 | 62 | 232 | 0.0 | 5.0 | 0.00 | 0.00 | 0.00 | 43 | 1013.0 |
| 20260503213107 | 62 | 292 | 0.0 | 7.0 | 0.00 | 0.00 | 0.00 | 47 | 1013.0 |
| 20260503212557 | 62 | 241 | 1.0 | 7.0 | 0.00 | 0.00 | 0.00 | 41 | 1013.2 |
| 20260503212055 | 62 | 134 | 0.0 | 4.0 | 0.00 | 0.00 | 0.00 | 41 | 1013.2 |
| 20260503211555 | 62 | 303 | 0.0 | 5.0 | 0.00 | 0.00 | 0.00 | 44 | 1013.5 |
| 20260503211055 | 62 | 113 | 0.0 | 6.0 | 0.00 | 0.00 | 0.00 | 43 | 1013.6 |
| 20260503210557 | 62 | 211 | 0.0 | 9.0 | 0.00 | 0.00 | 0.00 | 45 | 1013.7 |
| 20260503210059 | 62 | 198 | 0.0 | 9.0 | 0.00 | 0.00 | 0.00 | 41 | 1013.9 |
| 20260503205552 | 62 | 214 | 0.0 | 4.0 | 0.00 | 0.00 | 0.00 | 42 | 1014.1 |
| 20260503205052 | 63 | 146 | 0.0 | 4.0 | 0.00 | 0.00 | 0.00 | 43 | 1014.3 |
| 20260503204555 | 62 | 171 | 0.0 | 5.0 | 0.00 | 0.00 | 0.00 | 41 | 1014.3 |
| 20260503204053 | 63 | 175 | 0.0 | 7.0 | 0.00 | 0.00 | 0.00 | 41 | 1014.2 |
| 20260503203554 | 63 | 271 | 0.0 | 11.0 | 0.00 | 0.00 | 0.00 | 43 | 1014.4 |
| 20260503203051 | 64 | 244 | 2.0 | 9.0 | 0.00 | 0.00 | 0.00 | 42 | 1014.3 |
| 20260503202550 | 63 | 297 | 0.0 | 5.0 | 0.00 | 0.00 | 0.00 | 43 | 1014.3 |
| 20260503202050 | 63 | 322 | 0.0 | 5.0 | 0.00 | 0.00 | 0.00 | 43 | 1014.2 |
| 20260503201548 | 64 | 17 | 0.0 | 5.0 | 0.00 | 0.00 | 0.00 | 39 | 1014.4 |
| 20260503201049 | 64 | 198 | 0.0 | 9.0 | 0.00 | 0.00 | 0.00 | 42 | 1014.4 |
| 20260503200548 | 63 | 284 | 0.0 | 9.0 | 0.00 | 0.00 | 0.00 | 39 | 1014.6 |
| 20260503200054 | 63 | 240 | 2.0 | 5.0 | 0.00 | 0.00 | 0.00 | 41 | 1014.6 |
| 20260503195548 | 62 | 145 | 0.0 | 6.0 | 0.00 | 0.00 | 0.00 | 41 | 1014.6 |
| 20260503195047 | 63 | 195 | 1.0 | 6.0 | 0.00 | 0.00 | 0.00 | 39 | 1014.8 |
| 20260503194548 | 64 | 290 | 0.0 | 3.0 | 0.00 | 0.00 | 0.00 | 43 | 1014.8 |
| 20260503194046 | 64 | 255 | 0.0 | 4.0 | 0.00 | 0.00 | 0.00 | 43 | 1014.9 |
| 20260503193546 | 64 | 63 | 0.0 | 6.0 | 0.00 | 0.00 | 0.00 | 40 | 1014.6 |
| 20260503193052 | 64 | 226 | 0.0 | 4.0 | 0.00 | 0.00 | 0.00 | 39 | 1014.8 |
| 20260503192545 | 64 | 203 | 0.0 | 4.0 | 0.00 | 0.00 | 0.00 | 45 | 1014.8 |
| 20260503192044 | 64 | 130 | 1.0 | 5.0 | 0.00 | 0.00 | 0.00 | 40 | 1014.9 |
| 20260503191543 | 63 | 264 | 0.0 | 6.0 | 0.00 | 0.00 | 0.00 | 44 | 1015.2 |
| 20260503191044 | 63 | 284 | 0.0 | 6.0 | 0.00 | 0.00 | 0.00 | 42 | 1015.4 |
| 20260503190544 | 63 | 144 | 0.0 | 6.0 | 0.00 | 0.00 | 0.00 | 39 | 1015.4 |
| 20260503190042 | 63 | 325 | 1.0 | 5.0 | 0.00 | 0.00 | 0.00 | 40 | 1015.4 |
| 20260503185544 | 63 | 186 | 0.0 | 5.0 | 0.00 | 0.00 | 0.00 | 39 | 1015.6 |
| 20260503185041 | 63 | 89 | 0.0 | 5.0 | 0.00 | 0.00 | 0.00 | 38 | 1015.6 |
| 20260503184551 | 63 | 131 | 0.0 | 5.0 | 0.00 | 0.00 | 0.00 | 40 | 1015.9 |
| 20260503184045 | 63 | 221 | 1.0 | 5.0 | 0.00 | 0.00 | 0.00 | 43 | 1016.1 |
| 20260503183538 | 64 | 106 | 0.0 | 2.0 | 0.00 | 0.00 | 0.00 | 39 | 1016.1 |
| 20260503183057 | 63 | 171 | 0.0 | 5.0 | 0.00 | 0.00 | 0.00 | 40 | 1016.1 |
| 20260503182536 | 63 | 234 | 0.0 | 6.0 | 0.00 | 0.00 | 0.00 | 38 | 1016.3 |
| 20260503182036 | 63 | 146 | 0.0 | 6.0 | 0.00 | 0.00 | 0.00 | 42 | 1016.5 |
| 20260503181536 | 63 | 304 | 0.0 | 3.0 | 0.00 | 0.00 | 0.00 | 40 | 1016.5 |
| 20260503181035 | 63 | 252 | 0.0 | 4.0 | 0.00 | 0.00 | 0.00 | 43 | 1016.6 |
| 20260503180534 | 62 | 251 | 0.0 | 4.0 | 0.00 | 0.00 | 0.00 | 37 | 1016.6 |
| 20260503180040 | 62 | 26 | 1.0 | 3.0 | 0.00 | 0.00 | 0.00 | 40 | 1016.8 |
| 20260503175532 | 62 | 301 | 0.0 | 6.0 | 0.00 | 0.00 | 0.00 | 37 | 1016.9 |
| 20260503175030 | 61 | 294 | 0.0 | 6.0 | 0.00 | 0.00 | 0.00 | 40 | 1017.1 |
| 20260503174530 | 62 | 205 | 1.0 | 8.0 | 0.00 | 0.00 | 0.00 | 40 | 1017.1 |
| 20260503174029 | 61 | 203 | 0.0 | 8.0 | 0.00 | 0.00 | 0.00 | 37 | 1017.1 |
| 20260503173528 | 62 | 137 | 1.0 | 6.0 | 0.00 | 0.00 | 0.00 | 36 | 1017.2 |
| 20260503173129 | 62 | 272 | 0.0 | 5.0 | 0.00 | 0.00 | 0.00 | 41 | 1017.2 |
| 20260503172531 | 61 | 333 | 0.0 | 5.0 | 0.00 | 0.00 | 0.00 | 41 | 1017.3 |
| 20260503172025 | 61 | 294 | 1.0 | 6.0 | 0.00 | 0.00 | 0.00 | 36 | 1017.2 |
| 20260503171524 | 61 | 273 | 0.0 | 5.0 | 0.00 | 0.00 | 0.00 | 40 | 1017.4 |
| 20260503171025 | 60 | 121 | 1.0 | 5.0 | 0.00 | 0.00 | 0.00 | 38 | 1017.5 |
| 20260503170522 | 60 | 198 | 0.0 | 7.0 | 0.00 | 0.00 | 0.00 | 37 | 1017.6 |
| 20260503151006 | 55 | 298 | 0.0 | 5.0 | 0.00 | 0.00 | 0.00 | 47 | 1019.0 |
| 20260503150503 | 56 | 304 | 1.0 | 8.0 | 0.00 | 0.00 | 0.00 | 43 | 1019.1 |
| 20260503131037 | 46 | 211 | 0.0 | 2.0 | 0.00 | 0.00 | 0.00 | 69 | 1019.5 |
| 20260503130533 | 46 | 267 | 0.0 | 2.0 | 0.00 | 0.00 | 0.00 | 67 | 1019.5 |
| 20260503110511 | 37 | 209 | 0.0 | 0.0 | 0.00 | 0.00 | 0.00 | 81 | 1018.7 |
| 20260503090504 | 36 | 292 | 0.0 | 0.0 | 0.00 | 0.00 | 0.00 | 92 | 1018.7 |
| 20260503081501 | 36 | 296 | 0.0 | 0.0 | 0.00 | 0.00 | 0.00 | 92 | 1018.7 |
| 20260503081100 | 36 | 296 | 0.0 | 0.0 | 0.00 | 0.00 | 0.00 | 92 | 1018.5 |
| 20260503080602 | 36 | 296 | 0.0 | 0.0 | 0.00 | 0.00 | 0.00 | 92 | 1018.6 |
| 20260503072559 | 36 | 296 | 0.0 | 0.0 | 0.00 | 0.00 | 0.00 | 92 | 1018.5 |
| 20260503072057 | 37 | 296 | 0.0 | 0.0 | 0.00 | 0.00 | 0.00 | 92 | 1018.6 |
| 20260503071607 | 37 | 296 | 0.0 | 0.0 | 0.00 | 0.00 | 0.00 | 92 | 1018.6 |
| 20260503071056 | 37 | 296 | 0.0 | 0.0 | 0.00 | 0.00 | 0.00 | 92 | 1018.6 |
| 20260503070556 | 37 | 296 | 0.0 | 0.0 | 0.00 | 0.00 | 0.00 | 91 | 1018.6 |
| 20260503070107 | 37 | 296 | 0.0 | 0.0 | 0.00 | 0.00 | 0.00 | 91 | 1018.6 |
| 20260503055051 | 37 | 303 | 0.0 | 0.0 | 0.00 | 0.00 | 0.00 | 91 | 1019.1 |
| 20260503054551 | 37 | 303 | 0.0 | 0.0 | 0.00 | 0.00 | 0.00 | 91 | 1019.2 |
| 20260503054051 | 37 | 303 | 0.0 | 0.0 | 0.00 | 0.00 | 0.00 | 91 | 1019.2 |
| 20260503053551 | 38 | 303 | 0.0 | 0.0 | 0.00 | 0.00 | 0.00 | 91 | 1019.2 |
| 20260503053050 | 38 | 303 | 0.0 | 0.0 | 0.00 | 0.00 | 0.00 | 91 | 1019.2 |
| 20260503052551 | 38 | 303 | 0.0 | 0.0 | 0.00 | 0.00 | 0.00 | 90 | 1019.3 |
| 20260503052049 | 37 | 303 | 0.0 | 0.0 | 0.00 | 0.00 | 0.00 | 90 | 1019.3 |
| 20260503051552 | 37 | 303 | 0.0 | 0.0 | 0.00 | 0.00 | 0.00 | 89 | 1019.2 |
| 20260503051048 | 38 | 303 | 0.0 | 0.0 | 0.00 | 0.00 | 0.00 | 89 | 1019.2 |
| 20260503050548 | 38 | 308 | 0.0 | 2.0 | 0.00 | 0.00 | 0.00 | 89 | 1019.3 |
| 20260503050047 | 39 | 333 | 0.0 | 2.0 | 0.00 | 0.00 | 0.00 | 90 | 1019.4 |
| 20260503045550 | 39 | 333 | 0.0 | 2.0 | 0.00 | 0.00 | 0.00 | 91 | 1019.3 |
| 20260503045050 | 39 | 333 | 0.0 | 2.0 | 0.00 | 0.00 | 0.00 | 91 | 1019.4 |
| 20260503044546 | 38 | 333 | 0.0 | 0.0 | 0.00 | 0.00 | 0.00 | 89 | 1019.3 |
| 20260503044046 | 38 | 333 | 0.0 | 0.0 | 0.00 | 0.00 | 0.00 | 89 | 1019.2 |
| 20260503043544 | 38 | 333 | 0.0 | 0.0 | 0.00 | 0.00 | 0.00 | 89 | 1019.1 |